Location: Northcutt
(34.7304°N, 84.4305°W)
Time: 11:08:05
(UTC+00:00)

Tiros 1 despin weight - Visible Passes

Search period start: 05 October 2022 00:00
Search period end: 15 October 2022 00:00
Orbit: 590 x 638 km, 48.2° (Epoch: 04 October)

Date Brightness Start Highest point End Pass type
(mag) Time Alt. Az. Time Alt. Az. Time Alt. Az.
05 Oct ? 01:22:06 10° NNW 01:24:52 22° N 01:24:52 22° N visible
05 Oct ? 23:56:10 10° NNW 23:58:56 16° N 00:01:44 10° NE visible
06 Oct ? 01:37:15 10° NW 01:39:29 24° NNW 01:39:29 24° NNW visible
07 Oct ? 00:11:29 10° NNW 00:14:47 19° NNE 00:17:10 14° NE visible
07 Oct ? 01:52:25 10° NW 01:54:09 22° NW 01:54:09 22° NW visible
08 Oct ? 00:26:39 10° NW 00:30:30 26° NNE 00:31:53 23° NE visible
08 Oct ? 02:07:44 10° WNW 02:08:52 17° WNW 02:08:52 17° WNW visible
09 Oct ? 00:41:46 10° NW 00:46:05 41° NNE 00:46:40 39° NE visible
09 Oct ? 02:23:20 10° WNW 02:23:39 12° WNW 02:23:39 12° WNW visible
10 Oct ? 00:56:57 10° NW 01:01:30 74° NE 01:01:31 74° NE visible
10 Oct ? 23:31:06 10° NW 23:35:07 30° NNE 23:39:10 10° E visible
11 Oct ? 01:12:19 10° WNW 01:16:30 55° WSW 01:16:30 55° WSW visible
11 Oct ? 23:46:13 10° NW 23:50:37 49° NNE 23:54:37 13° ESE visible
12 Oct ? 01:28:03 10° WNW 01:31:38 27° SW 01:31:38 27° SW visible
13 Oct ? 00:01:25 10° NW 00:05:59 89° SSW 00:09:53 14° SE visible
13 Oct ? 01:44:48 10° W 01:46:55 13° SW 01:46:55 13° SW visible
14 Oct ? 00:16:52 10° WNW 00:21:11 44° SW 00:25:22 11° SSE visible
